When you browse on this site, cookies collect data to enhance your experience and personalize the content and advertising you see.
Visit our Privacy Policy to learn more. By continuing to use the site, you agree to this use of cookies and data.
  • en France
  • Liste des pays
  • À 7 jours
  • Température de l'eau
  • Carte météo
  • Widgets météo
  • user-avatar
    Se connecter

    Météo par heure à Wilkes-Barre

    Ce jour, 1 Juin, Lundi

    Heure Température Précipitation Vent Pression Humidité
    00:00 +7°C° 0 mm 1 m/s 749 mmHg 80%
    01:00 +6°C° 0 mm 1 m/s 749 mmHg 82%
    02:00 +6°C° 0 mm 1 m/s 749 mmHg 84%
    03:00 +5°C° 0 mm 1 m/s 749 mmHg 87%
    04:00 +5°C° 0 mm 1 m/s 749 mmHg 89%
    05:00 +7°C° 0 mm 1 m/s 749 mmHg 82%
    06:00 +9°C° 0 mm 1 m/s 750 mmHg 74%
    07:00 +11°C° 0 mm 1 m/s 750 mmHg 67%
    08:00 +12°C° 0 mm 2 m/s 750 mmHg 61%
    09:00 +13°C° 0 mm 3 m/s 749 mmHg 55%
    10:00 +15°C° 0 mm 4 m/s 749 mmHg 48%
    11:00 +17°C° 0 mm 4 m/s 748 mmHg 45%
    12:00 +19°C° 0 mm 4 m/s 748 mmHg 41%
    13:00 +20°C° 0 mm 4 m/s 747 mmHg 37%
    14:00 +20°C° 0 mm 4 m/s 747 mmHg 38%
    15:00 +20°C° 0 mm 4 m/s 746 mmHg 38%
    16:00 +21°C° 0 mm 4 m/s 746 mmHg 38%
    17:00 +19°C° 0 mm 3 m/s 746 mmHg 47%
    18:00 +17°C° 0 mm 2 m/s 746 mmHg 56%
    19:00 +16°C° 0 mm 2 m/s 746 mmHg 65%
    20:00 +14°C° 0 mm 1 m/s 746 mmHg 69%
    21:00 +13°C° 0 mm 1 m/s 746 mmHg 72%
    22:00 +10°C° 0 mm 0 m/s 746 mmHg 75%
    23:00 +12°C° 0 mm 1 m/s 746 mmHg 74%

    Demain, 2 Juin, Mardi

    Heure Température Précipitation Vent Pression Humidité
    00:00 +12°C° 0 mm 1 m/s 746 mmHg 72%
    01:00 +12°C° 0 mm 1 m/s 745 mmHg 71%
    02:00 +12°C° 0 mm 1 m/s 745 mmHg 70%
    03:00 +12°C° 0 mm 1 m/s 745 mmHg 70%
    04:00 +13°C° 0 mm 1 m/s 745 mmHg 69%
    05:00 +12°C° 0.1 mm 1 m/s 745 mmHg 77%
    06:00 +12°C° 0.1 mm 1 m/s 745 mmHg 85%
    07:00 +12°C° 0.1 mm 1 m/s 745 mmHg 93%
    08:00 +12°C° 0.1 mm 1 m/s 744 mmHg 93%
    09:00 +12°C° 0.1 mm 2 m/s 744 mmHg 94%
    10:00 +12°C° 0.1 mm 2 m/s 743 mmHg 94%
    11:00 +13°C° 0 mm 2 m/s 743 mmHg 91%
    12:00 +13°C° 0 mm 3 m/s 742 mmHg 87%
    13:00 +14°C° 0 mm 3 m/s 742 mmHg 83%
    14:00 +16°C° 0 mm 3 m/s 741 mmHg 80%
    15:00 +17°C° 0 mm 3 m/s 741 mmHg 77%
    16:00 +17°C° 0 mm 3 m/s 740 mmHg 74%
    17:00 +17°C° 0 mm 3 m/s 740 mmHg 79%
    18:00 +16°C° 0 mm 2 m/s 740 mmHg 84%
    19:00 +15°C° 0 mm 2 m/s 739 mmHg 90%
    20:00 +15°C° 0.3 mm 1 m/s 739 mmHg 92%
    21:00 +15°C° 0.3 mm 1 m/s 739 mmHg 95%
    22:00 +15°C° 0.3 mm 1 m/s 738 mmHg 97%
    23:00 +15°C° 0.9 mm 1 m/s 738 mmHg 98%

    Après-demain, 3 Juin, Mercredi

    Heure Température Précipitation Vent Pression Humidité
    00:00 +16°C° 0.9 mm 2 m/s 737 mmHg 98%
    01:00 +16°C° 0.9 mm 2 m/s 737 mmHg 99%
    02:00 +16°C° 0.4 mm 2 m/s 737 mmHg 99%
    03:00 +17°C° 0.4 mm 2 m/s 736 mmHg 99%
    04:00 +17°C° 0.4 mm 2 m/s 736 mmHg 99%
    05:00 +18°C° 0 mm 2 m/s 736 mmHg 98%
    06:00 +19°C° 0 mm 2 m/s 737 mmHg 97%
    07:00 +20°C° 0 mm 2 m/s 737 mmHg 96%
    08:00 +22°C° 0 mm 3 m/s 737 mmHg 85%
    09:00 +25°C° 0 mm 3 m/s 737 mmHg 74%
    10:00 +27°C° 0 mm 3 m/s 736 mmHg 64%
    11:00 +28°C° 0.2 mm 3 m/s 736 mmHg 65%
    12:00 +28°C° 0.2 mm 3 m/s 736 mmHg 67%
    13:00 +29°C° 0.2 mm 3 m/s 736 mmHg 68%
    14:00 +28°C° 1.5 mm 3 m/s 735 mmHg 76%
    15:00 +27°C° 1.5 mm 3 m/s 735 mmHg 83%
    16:00 +26°C° 1.5 mm 3 m/s 735 mmHg 91%
    17:00 +24°C° 4 mm 2 m/s 735 mmHg 93%
    18:00 +23°C° 4 mm 2 m/s 735 mmHg 95%
    19:00 +20°C° 4 mm 2 m/s 735 mmHg 97%
    20:00 +19°C° 0 mm 2 m/s 735 mmHg 97%
    21:00 +19°C° 0 mm 2 m/s 736 mmHg 97%
    22:00 +18°C° 0 mm 2 m/s 736 mmHg 97%
    23:00 +18°C° 0 mm 2 m/s 736 mmHg 97%

    4 Juin, Jeudi

    Heure Température Précipitation Vent Pression Humidité
    00:00 +19°C° 0 mm 1 m/s 736 mmHg 97%
    01:00 +19°C° 0 mm 1 m/s 736 mmHg 97%
    02:00 +19°C° 0 mm 1 m/s 736 mmHg 97%
    03:00 +19°C° 0 mm 1 m/s 736 mmHg 98%
    04:00 +19°C° 0 mm 1 m/s 736 mmHg 98%
    05:00 +20°C° 0 mm 1 m/s 737 mmHg 97%
    06:00 +21°C° 0 mm 1 m/s 737 mmHg 96%
    07:00 +22°C° 0 mm 1 m/s 737 mmHg 95%
    08:00 +23°C° 0 mm 1 m/s 738 mmHg 87%
    09:00 +25°C° 0 mm 1 m/s 738 mmHg 79%
    10:00 +27°C° 0 mm 1 m/s 739 mmHg 71%
    11:00 +28°C° 0 mm 1 m/s 738 mmHg 64%
    12:00 +29°C° 0 mm 1 m/s 738 mmHg 57%
    13:00 +31°C° 0 mm 1 m/s 738 mmHg 50%
    14:00 +29°C° 0.7 mm 1 m/s 738 mmHg 62%
    15:00 +28°C° 0.7 mm 2 m/s 738 mmHg 74%
    16:00 +26°C° 0.7 mm 2 m/s 738 mmHg 86%
    17:00 +25°C° 1.4 mm 1 m/s 738 mmHg 89%
    18:00 +24°C° 1.4 mm 1 m/s 739 mmHg 92%
    19:00 +20°C° 1.4 mm 0 m/s 739 mmHg 95%
    20:00 +22°C° 0 mm 1 m/s 739 mmHg 95%
    21:00 +21°C° 0 mm 1 m/s 739 mmHg 95%
    22:00 +20°C° 0 mm 1 m/s 739 mmHg 96%
    23:00 +20°C° 0 mm 1 m/s 739 mmHg 96%

    5 Juin, Vendredi

    Heure Température Précipitation Vent Pression Humidité
    00:00 +20°C° 0 mm 1 m/s 739 mmHg 96%
    01:00 +20°C° 0 mm 1 m/s 739 mmHg 97%
    02:00 +20°C° 0 mm 1 m/s 739 mmHg 97%
    03:00 +20°C° 0 mm 1 m/s 739 mmHg 97%
    04:00 +19°C° 0 mm 1 m/s 739 mmHg 97%
    05:00 +20°C° 0 mm 1 m/s 739 mmHg 97%
    06:00 +20°C° 0 mm 2 m/s 739 mmHg 96%
    07:00 +21°C° 0 mm 2 m/s 739 mmHg 95%
    08:00 +24°C° 0.1 mm 2 m/s 739 mmHg 85%
    09:00 +26°C° 0.1 mm 3 m/s 740 mmHg 76%
    10:00 +28°C° 0.1 mm 3 m/s 740 mmHg 66%
    11:00 +28°C° 1 mm 3 m/s 739 mmHg 72%
    12:00 +28°C° 1 mm 3 m/s 739 mmHg 77%
    13:00 +28°C° 1 mm 3 m/s 738 mmHg 83%
    14:00 +28°C° 1.2 mm 3 m/s 738 mmHg 85%
    15:00 +28°C° 1.2 mm 3 m/s 738 mmHg 87%
    16:00 +27°C° 1.2 mm 2 m/s 738 mmHg 89%
    17:00 +26°C° 0.6 mm 2 m/s 738 mmHg 91%
    18:00 +25°C° 0.6 mm 2 m/s 738 mmHg 92%
    19:00 +24°C° 0.6 mm 2 m/s 738 mmHg 94%
    20:00 +23°C° 0.1 mm 2 m/s 738 mmHg 94%
    21:00 +21°C° 0.1 mm 2 m/s 739 mmHg 94%
    22:00 +21°C° 0.1 mm 1 m/s 739 mmHg 95%
    23:00 +21°C° 0 mm 1 m/s 739 mmHg 95%

    6 Juin, Samedi

    Heure Température Précipitation Vent Pression Humidité
    00:00 +20°C° 0 mm 1 m/s 739 mmHg 95%
    01:00 +19°C° 0 mm 1 m/s 739 mmHg 95%
    02:00 +18°C° 0 mm 1 m/s 739 mmHg 94%
    03:00 +16°C° 0 mm 1 m/s 739 mmHg 94%
    04:00 +15°C° 0 mm 1 m/s 739 mmHg 94%
    05:00 +16°C° 0 mm 1 m/s 739 mmHg 92%
    06:00 +17°C° 0 mm 2 m/s 740 mmHg 91%
    07:00 +18°C° 0 mm 2 m/s 740 mmHg 89%
    08:00 +19°C° 0 mm 3 m/s 741 mmHg 79%
    09:00 +20°C° 0 mm 4 m/s 741 mmHg 69%
    10:00 +22°C° 0 mm 4 m/s 741 mmHg 59%
    11:00 +22°C° 0 mm 4 m/s 741 mmHg 57%
    12:00 +22°C° 0 mm 4 m/s 741 mmHg 55%
    13:00 +22°C° 0 mm 4 m/s 741 mmHg 53%
    14:00 +22°C° 0 mm 4 m/s 741 mmHg 52%
    15:00 +22°C° 0 mm 4 m/s 741 mmHg 51%
    16:00 +22°C° 0 mm 5 m/s 741 mmHg 50%
    17:00 +20°C° 0 mm 4 m/s 741 mmHg 53%
    18:00 +18°C° 0 mm 4 m/s 742 mmHg 57%
    19:00 +16°C° 0 mm 3 m/s 742 mmHg 61%
    20:00 +13°C° 0 mm 3 m/s 742 mmHg 66%
    21:00 +13°C° 0 mm 2 m/s 743 mmHg 71%
    22:00 +11°C° 0 mm 1 m/s 743 mmHg 77%
    23:00 +11°C° 0 mm 1 m/s 743 mmHg 79%
    Voir plus